PTVMF SSIE-SSIE

Flight info

Callsign PTVMF
Flight time N/A
Altitude 2800
Route DCT
Aircraft PA34/L-SDGR/C

Departure

Time 2026-04-28 13:18
Airport Teruel Ipanema Estância Airport (SSIE)

Arrival

Time N/A
Airport Teruel Ipanema Estância Airport (SSIE)
Time Latitude Longitude Altitude Speed Heading
2026-04-28 13:09 -20.60515 -54.59419 1747 ft 0 kts 309°
2026-04-28 13:09 -20.60511 -54.59423 1747 ft 3 kts 310°
2026-04-28 13:09 -20.60487 -54.59455 1746 ft 4 kts 310°
2026-04-28 13:10 -20.60466 -54.59460 1747 ft 2 kts 40°
2026-04-28 13:10 -20.60458 -54.59453 1747 ft 0 kts 41°
2026-04-28 13:10 -20.60458 -54.59452 1747 ft 0 kts 41°
2026-04-28 13:10 -20.60457 -54.59452 1747 ft 1 kts 41°
2026-04-28 13:11 -20.60441 -54.59438 1747 ft 4 kts 39°
2026-04-28 13:11 -20.60401 -54.59404 1749 ft 9 kts 37°
2026-04-28 13:11 -20.60340 -54.59352 1750 ft 11 kts 39°
2026-04-28 13:11 -20.60283 -54.59304 1752 ft 9 kts 39°
2026-04-28 13:12 -20.60236 -54.59262 1753 ft 8 kts 39°
2026-04-28 13:12 -20.60195 -54.59228 1754 ft 6 kts 37°
2026-04-28 13:12 -20.60160 -54.59197 1755 ft 6 kts 40°
2026-04-28 13:12 -20.60121 -54.59164 1756 ft 6 kts 39°
2026-04-28 13:13 -20.60065 -54.59116 1757 ft 12 kts 38°
2026-04-28 13:13 -20.60001 -54.59062 1759 ft 7 kts 39°
2026-04-28 13:13 -20.59955 -54.59060 1759 ft 5 kts 309°
2026-04-28 13:13 -20.59954 -54.59061 1759 ft 0 kts 309°
2026-04-28 13:16 -20.59953 -54.59061 1759 ft 2 kts 309°
2026-04-28 13:17 -20.59921 -54.59104 1759 ft 7 kts 295°
2026-04-28 13:17 -20.59973 -54.59174 1758 ft 28 kts 218°
2026-04-28 13:17 -20.60320 -54.59473 1761 ft 91 kts 221°
2026-04-28 13:17 -20.60882 -54.59951 1812 ft 110 kts 220°
2026-04-28 13:18 -20.61527 -54.60368 2003 ft 106 kts 187°
2026-04-28 13:18 -20.62137 -54.60046 2108 ft 109 kts 110°
2026-04-28 13:18 -20.61974 -54.59293 2174 ft 110 kts 42°
2026-04-28 13:18 -20.61457 -54.58702 2340 ft 108 kts 46°
2026-04-28 13:19 -20.60965 -54.58104 2483 ft 108 kts 49°
2026-04-28 13:19 -20.60485 -54.57463 2570 ft 112 kts 50°
2026-04-28 13:19 -20.59994 -54.56789 2610 ft 118 kts 49°
2026-04-28 13:19 -20.59527 -54.56132 2626 ft 100 kts 52°
2026-04-28 13:20 -20.59015 -54.55783 2565 ft 90 kts
2026-04-28 13:20 -20.58483 -54.56162 2423 ft 100 kts 311°
2026-04-28 13:20 -20.58142 -54.56794 2394 ft 102 kts 284°
2026-04-28 13:20 -20.58303 -54.57515 2282 ft 100 kts 240°
2026-04-28 13:21 -20.58724 -54.58104 2146 ft 97 kts 226°
2026-04-28 13:21 -20.59205 -54.58519 1997 ft 84 kts 217°
2026-04-28 13:21 -20.59669 -54.58918 1851 ft 85 kts 216°
2026-04-28 13:21 -20.60093 -54.59280 1755 ft 67 kts 219°
2026-04-28 13:22 -20.60503 -54.59633 1763 ft 89 kts 215°
2026-04-28 13:22 -20.61041 -54.60089 1877 ft 104 kts 219°
2026-04-28 13:22 -20.61660 -54.60490 2074 ft 105 kts 190°
2026-04-28 13:22 -20.62366 -54.60402 2273 ft 105 kts 165°
2026-04-28 13:23 -20.63096 -54.60516 2471 ft 109 kts 206°
2026-04-28 13:23 -20.63762 -54.60909 2682 ft 110 kts 209°
2026-04-28 13:23 -20.64441 -54.61326 2896 ft 112 kts 210°
2026-04-28 13:23 -20.65126 -54.61738 3105 ft 114 kts 212°
2026-04-28 13:24 -20.65822 -54.62148 3316 ft 115 kts 211°
2026-04-28 13:24 -20.66527 -54.62557 3530 ft 116 kts 212°
2026-04-28 13:24 -20.67247 -54.62964 3755 ft 116 kts 211°
2026-04-28 13:24 -20.67967 -54.63345 3975 ft 117 kts 206°
2026-04-28 13:25 -20.68717 -54.63692 4196 ft 117 kts 207°
2026-04-28 13:25 -20.69470 -54.64038 4418 ft 117 kts 207°
2026-04-28 13:25 -20.70273 -54.64255 4548 ft 129 kts 179°
2026-04-28 13:25 -20.71220 -54.64113 4531 ft 143 kts 170°
2026-04-28 13:26 -20.72272 -54.63902 4528 ft 160 kts 169°
2026-04-28 13:26 -20.73406 -54.63670 4524 ft 170 kts 169°
2026-04-28 13:26 -20.74593 -54.63428 4522 ft 175 kts 169°
2026-04-28 13:26 -20.75815 -54.63176 4521 ft 178 kts 169°
2026-04-28 13:27 -20.77034 -54.62924 4518 ft 179 kts 169°
2026-04-28 13:27 -20.78261 -54.62668 4515 ft 180 kts 169°
2026-04-28 13:27 -20.79509 -54.62410 4512 ft 181 kts 169°
2026-04-28 13:27 -20.80715 -54.62159 4511 ft 181 kts 168°
2026-04-28 13:28 -20.81955 -54.61901 4509 ft 180 kts 169°
2026-04-28 13:28 -20.83192 -54.61643 4509 ft 180 kts 169°
2026-04-28 13:28 -20.84440 -54.61384 4509 ft 180 kts 169°
2026-04-28 13:28 -20.85679 -54.61126 4508 ft 181 kts 169°
2026-04-28 13:29 -20.86913 -54.60869 4508 ft 181 kts 168°
2026-04-28 13:29 -20.88160 -54.60609 4509 ft 181 kts 169°
2026-04-28 13:29 -20.89390 -54.60353 4509 ft 181 kts 169°
2026-04-28 13:29 -20.90641 -54.60092 4509 ft 181 kts 169°
2026-04-28 13:30 -20.91874 -54.59835 4510 ft 181 kts 169°
2026-04-28 13:30 -20.93126 -54.59574 4508 ft 180 kts 169°
2026-04-28 13:30 -20.94337 -54.59321 4507 ft 176 kts 169°
2026-04-28 13:30 -20.95546 -54.59069 4507 ft 174 kts 169°
2026-04-28 13:31 -20.97903 -54.58577 4507 ft 172 kts 168°
2026-04-28 13:31 -20.99092 -54.58328 4507 ft 171 kts 168°
2026-04-28 13:31 -21.00260 -54.58084 4507 ft 171 kts 169°
2026-04-28 13:32 -21.01434 -54.57838 4507 ft 171 kts 169°
2026-04-28 13:32 -21.02612 -54.57592 4507 ft 171 kts 169°
2026-04-28 13:32 -21.03784 -54.57347 4507 ft 172 kts 169°
2026-04-28 13:32 -21.04973 -54.57099 4507 ft 172 kts 169°
2026-04-28 13:33 -21.06143 -54.56854 4507 ft 172 kts 169°
2026-04-28 13:33 -21.07312 -54.56609 4506 ft 172 kts 169°
2026-04-28 13:33 -21.08501 -54.56361 4510 ft 172 kts 169°
2026-04-28 13:33 -21.09677 -54.56115 4513 ft 172 kts 169°
2026-04-28 13:34 -21.10865 -54.55867 4511 ft 172 kts 169°
2026-04-28 13:34 -21.12051 -54.55619 4512 ft 171 kts 169°
2026-04-28 13:34 -21.13232 -54.55372 4511 ft 171 kts 169°
2026-04-28 13:34 -21.14398 -54.55128 4510 ft 171 kts 169°
2026-04-28 13:35 -21.15578 -54.54881 4511 ft 171 kts 169°
2026-04-28 13:35 -21.16744 -54.54637 4511 ft 171 kts 169°
2026-04-28 13:35 -21.17934 -54.54388 4510 ft 171 kts 169°
2026-04-28 13:35 -21.19095 -54.54145 4512 ft 171 kts 169°
2026-04-28 13:36 -21.20270 -54.53899 4515 ft 172 kts 169°
2026-04-28 13:36 -21.21463 -54.53649 4514 ft 172 kts 169°
2026-04-28 13:36 -21.22646 -54.53401 4513 ft 172 kts 169°
2026-04-28 13:36 -21.23819 -54.53155 4513 ft 171 kts 169°
2026-04-28 13:37 -21.24996 -54.52909 4512 ft 172 kts 169°
2026-04-28 13:37 -21.26177 -54.52661 4512 ft 171 kts 169°
2026-04-28 13:37 -21.27348 -54.52416 4512 ft 171 kts 169°
2026-04-28 13:37 -21.28524 -54.52169 4512 ft 171 kts 169°
2026-04-28 13:38 -21.29710 -54.51920 4512 ft 171 kts 169°
2026-04-28 13:38 -21.30886 -54.51673 4512 ft 171 kts 169°
2026-04-28 13:38 -21.32053 -54.51429 4509 ft 171 kts 169°
2026-04-28 13:38 -21.33231 -54.51181 4510 ft 171 kts 169°
2026-04-28 13:39 -21.34397 -54.50937 4508 ft 171 kts 169°
2026-04-28 13:39 -21.35566 -54.50691 4510 ft 171 kts 169°
2026-04-28 13:39 -21.36746 -54.50444 4510 ft 172 kts 169°
2026-04-28 13:39 -21.37924 -54.50196 4512 ft 172 kts 169°
2026-04-28 13:40 -21.39087 -54.49953 4507 ft 161 kts 169°
2026-04-28 13:40 -21.40132 -54.49733 4507 ft 145 kts 169°
2026-04-28 13:40 -21.41124 -54.49526 4390 ft 145 kts 169°
2026-04-28 13:40 -21.42119 -54.49473 4248 ft 140 kts 204°
2026-04-28 13:41 -21.42802 -54.50170 3943 ft 132 kts 239°
2026-04-28 13:41 -21.43288 -54.50867 3795 ft 89 kts 239°
2026-04-28 13:41 -21.43628 -54.51334 3787 ft 77 kts 242°
2026-04-28 13:41 -21.43944 -54.51815 3803 ft 77 kts 245°
2026-04-28 13:42 -21.44235 -54.52264 3884 ft 71 kts 245°
2026-04-28 13:42 -21.44521 -54.52706 3847 ft 72 kts 248°
2026-04-28 13:42 -21.44784 -54.53129 3896 ft 66 kts 249°
2026-04-28 13:42 -21.45043 -54.53527 3945 ft 64 kts 248°
2026-04-28 13:43 -21.45314 -54.53913 3962 ft 67 kts 257°
2026-04-28 13:43 -21.45741 -54.54220 3576 ft 99 kts 167°
2026-04-28 13:43 -21.46192 -54.53713 3180 ft 102 kts 101°
2026-04-28 13:43 -21.46194 -54.53006 2970 ft 95 kts 69°
2026-04-28 13:44 -21.45985 -54.52360 2918 ft 87 kts 56°
2026-04-28 13:44 -21.45637 -54.51808 2970 ft 95 kts 48°
2026-04-28 13:44 -21.45197 -54.51223 3055 ft 104 kts 46°
2026-04-28 13:44 -21.44695 -54.50619 3119 ft 113 kts 43°
2026-04-28 13:45 -21.44137 -54.49996 3182 ft 118 kts 41°
2026-04-28 13:45 -21.43535 -54.49358 3197 ft 124 kts 41°
2026-04-28 13:45 -21.42888 -54.48708 3203 ft 127 kts 39°
2026-04-28 13:45 -21.42211 -54.48098 3206 ft 129 kts 36°
2026-04-28 13:46 -21.41415 -54.47657 3210 ft 127 kts 12°
2026-04-28 13:46 -21.40524 -54.47653 3163 ft 131 kts 353°
2026-04-28 13:46 -21.39615 -54.47834 3166 ft 130 kts 348°
2026-04-28 13:46 -21.38734 -54.48062 3154 ft 131 kts 348°
2026-04-28 13:47 -21.37834 -54.48295 3127 ft 131 kts 350°
2026-04-28 13:47 -21.36933 -54.48371 3180 ft 126 kts 357°
2026-04-28 13:47 -21.36126 -54.48288 3156 ft 104 kts 18°
2026-04-28 13:47 -21.35471 -54.48019 3074 ft 96 kts 18°
2026-04-28 13:48 -21.34815 -54.47779 2880 ft 99 kts 15°
2026-04-28 13:48 -21.34170 -54.47570 2716 ft 85 kts 15°
2026-04-28 13:48 -21.33743 -54.47425 2713 ft 55 kts 15°
2026-04-28 13:48 -21.33393 -54.47305 2776 ft 53 kts 15°
2026-04-28 13:49 -21.33011 -54.47189 2610 ft 67 kts 28°
2026-04-28 13:49 -21.32579 -54.46978 2382 ft 73 kts 20°
2026-04-28 13:49 -21.32075 -54.46835 2154 ft 75 kts
2026-04-28 13:49 -21.31555 -54.46841 1993 ft 76 kts 350°
2026-04-28 13:50 -21.31059 -54.47032 1847 ft 72 kts 340°
2026-04-28 13:50 -21.30613 -54.47303 1717 ft 74 kts 330°
2026-04-28 13:50 -21.30167 -54.47596 1562 ft 76 kts 330°
2026-04-28 13:50 -21.29766 -54.47854 1524 ft 63 kts 328°
2026-04-28 13:51 -21.29267 -54.48179 1511 ft 105 kts 332°
2026-04-28 13:51 -21.28608 -54.48678 1613 ft 126 kts 311°
2026-04-28 13:51 -21.28408 -54.49600 1839 ft 122 kts 289°
2026-04-28 13:51 -21.27921 -54.49753 1962 ft 82 kts 59°
2026-04-28 13:52 -21.28037 -54.49152 1827 ft 90 kts 118°
2026-04-28 13:52 -21.28483 -54.48704 1680 ft 92 kts 143°
2026-04-28 13:52 -21.29013 -54.48340 1517 ft 87 kts 148°
2026-04-28 13:52 -21.29462 -54.48050 1503 ft 56 kts 144°
2026-04-28 13:53 -21.29649 -54.47935 1518 ft 8 kts 161°
2026-04-28 13:53 -21.29614 -54.47946 1515 ft 13 kts 327°
2026-04-28 13:53 -21.29525 -54.48008 1509 ft 13 kts 332°
2026-04-28 13:53 -21.29484 -54.47997 1505 ft 5 kts 75°
2026-04-28 13:54 -21.29482 -54.47993 1504 ft 0 kts 58°